RH
3 3 2 2 2 2 3 3 3 3 3 3 3 3 3 3 3 3 3 5 13 21 28 43 49 53 30 13 30 48 92 96 93 91 86 76 89 96 93 88 83 62 39
3 3 2 2 2 3 3 3 4 4 3 3 3 3 3 3 3 3 3 4 6 13 19 17 46 74 70 23 30 46 74 90 95 100 94 88 83 89 99 87 67 58 45
3 3 3 3 3 3 4 5 5 4 4 3 3 2 3 2 3 2 3 4 6 9 13 18 30 54 83 83 39 61 77 68 67 88 89 87 81 93 90 79 80 49 44
3 3 3 3 3 3 3 5 4 4 4 3 3 3 2 2 2 2 2 3 6 12 12 20 23 41 54 95 88 51 55 74 72 85 80 80 74 80 70 56 50 46 29
3 3 4 4 4 4 4 4 4 4 4 4 4 3 2 2 2 2 2 2 8 15 14 17 16 19 39 80 60 90 49 60 83 96 78 84 75 57 55 54 56 49 23
4 4 4 4 4 5 5 5 5 5 6 5 4 3 3 2 2 2 2 2 4 20 23 15 9 9 21 77 46 99 93 33 61 83 90 96 73 68 65 60 60 37 12
4 4 4 4 4 4 5 6 6 6 6 6 5 4 3 2 2 2 3 2 3 10 22 14 11 12 10 14 65 94 99 50 38 57 75 90 70 66 64 56 61 38 18
6 5 4 4 4 4 4 5 6 7 6 6 7 6 5 3 3 3 3 2 4 9 12 13 17 22 12 22 54 70 94 75 57 45 64 83 81 74 72 60 64 40 15
7 8 6 4 4 4 4 4 5 7 6 6 6 7 7 4 3 3 3 3 5 12 15 29 40 49 19 17 48 76 69 76 65 48 43 48 49 83 90 77 66 42 9
4 7 7 5 5 5 4 4 5 5 6 5 5 6 7 6 4 4 4 3 6 14 23 39 62 51 37 32 85 86 84 76 76 59 52 84 98 96 88 76 60 25 8
6 7 7 7 7 5 5 5 5 4 6 5 4 5 6 7 5 4 4 3 6 21 34 73 43 41 70 27 91 95 99 91 93 83 68 86 88 82 73 72 50 18 8
5 6 7 7 10 8 7 7 6 5 5 6 4 4 5 7 6 5 4 4 7 22 23 24 19 47 65 47 64 94 98 96 94 99 68 76 100 88 73 69 35 8 9
9 7 5 6 7 7 9 8 7 7 6 7 4 4 5 6 7 5 5 4 8 20 22 15 26 51 67 61 92 98 95 97 100 96 79 67 82 85 59 57 20 12 14
19 16 15 14 13 11 10 12 10 7 7 7 7 4 4 5 7 5 5 4 8 23 24 22 31 63 63 50 69 96 96 96 98 69 74 59 57 74 64 61 37 13 16
25 26 23 19 18 16 13 16 15 12 10 10 9 5 4 4 8 6 4 4 8 23 26 27 34 67 56 70 81 95 97 92 60 54 64 57 66 86 53 40 36 17 23
31 26 26 24 22 18 16 17 18 14 12 14 12 6 4 4 7 6 5 4 7 28 30 28 30 59 96 94 96 98 93 96 77 48 59 62 74 87 78 36 15 20 29
38 33 28 25 22 19 21 24 18 17 13 14 12 7 5 4 7 11 4 4 8 30 33 37 30 30 74 95 98 97 98 96 94 48 41 52 57 68 32 19 30 31 30
52 42 37 30 27 25 22 23 21 18 14 12 11 9 6 9 15 12 6 3 7 33 38 44 49 24 36 88 96 96 96 97 97 65 34 38 59 79 59 55 40 30 32
64 54 48 41 34 29 27 27 29 30 24 14 12 10 6 14 13 13 9 3 6 31 43 44 56 23 31 33 59 91 90 96 97 93 68 29 32 61 70 66 53 50 63
76 69 56 53 47 39 38 40 77 63 53 22 11 9 7 8 9 10 6 6 21 29 46 43 59 23 23 43 56 83 83 95 96 99 79 63 33 47 50 62 61 52 78
91 80 72 60 52 54 67 45 46 32 40 30 16 12 9 10 7 6 46 85 58 37 53 64 55 20 18 35 36 67 97 97 97 100 82 73 36 36 53 75 64 66 80
86 88 79 68 58 48 42 33 42 36 24 31 30 14 18 16 12 9 36 52 67 48 52 46 41 22 15 16 36 36 68 87 96 96 86 94 66 51 65 85 93 88 88
89 90 84 92 73 53 44 36 29 20 12 24 22 19 13 8 10 19 24 35 45 40 54 50 48 29 17 16 23 30 40 81 96 96 97 96 97 96 94 88 94 89 94
87 99 94 98 84 46 42 37 30 24 16 12 20 15 11 18 33 28 14 17 34 50 61 66 64 46 18 17 17 25 36 65 90 96 91 97 96 100 98 97 96 88 94
84 88 86 96 97 70 36 31 34 31 19 12 14 14 9 21 22 18 8 6 18 38 71 74 83 66 21 20 18 20 30 49 65 85 89 93 98 97 99 97 97 86 95
95 82 85 99 97 95 56 40 26 20 17 19 20 26 15 22 18 13 6 4 8 34 74 90 86 65 22 21 20 19 22 38 53 76 88 96 97 96 92 92 84 84 94
Wind_Speed
7 5 4 4 5 6 8 11 13 14 15 16 17 19 19 20 22 23 23 22 21 20 21 21 19 21 28 27 23 22 17 31 25 25 24 25 32 18 15 19 19 15 14
6 6 5 4 5 8 10 13 13 14 15 16 18 19 19 20 21 22 23 25 25 23 24 23 20 24 26 28 28 30 33 28 18 22 25 25 25 22 15 15 13 14 14
9 7 7 6 9 10 11 10 10 11 13 14 15 18 19 20 20 21 23 26 26 24 23 22 19 23 29 29 28 29 33 32 29 27 24 24 25 22 23 17 16 16 16
12 8 7 8 11 11 12 10 10 10 13 14 16 17 18 20 22 23 24 25 26 24 23 20 20 20 23 23 28 29 30 27 25 33 29 30 30 27 23 21 18 17 17
15 12 9 10 11 12 11 11 12 13 15 16 16 16 17 19 21 23 25 27 26 23 24 23 19 22 22 9 21 31 30 28 31 26 28 29 28 27 24 21 20 18 18
22 16 14 15 15 15 13 13 15 15 15 16 17 17 18 18 20 23 27 30 27 22 22 24 22 21 21 22 26 22 30 27 31 27 30 23 24 25 24 22 21 19 18
25 22 18 18 18 18 17 15 15 17 17 17 19 20 21 20 21 24 29 30 30 24 22 22 20 20 19 18 17 11 20 26 29 31 26 23 25 26 26 24 22 21 19
30 30 25 23 21 21 20 19 17 17 18 18 20 21 22 22 23 25 30 31 30 25 22 22 22 21 18 14 13 12 16 24 23 28 28 29 27 26 24 25 23 21 19
29 32 30 30 26 25 24 21 20 19 19 20 20 22 23 25 26 27 29 32 31 23 21 22 21 21 19 16 11 18 14 20 21 23 26 24 27 25 25 22 22 20 19
31 30 33 37 33 30 28 25 22 21 21 22 22 24 24 24 27 29 31 31 31 22 20 21 20 21 19 13 16 25 16 19 17 19 22 26 23 35 22 21 19 20 20
36 31 35 37 37 37 32 29 26 23 22 23 23 24 24 23 26 30 32 32 31 20 20 19 23 20 19 17 14 22 23 15 18 19 22 25 18 22 21 20 18 20 20
36 36 35 36 33 35 35 33 30 26 25 24 24 24 24 24 26 29 31 31 29 21 23 21 23 21 19 17 14 20 22 19 19 19 23 26 20 18 21 21 19 19 20
43 40 36 34 33 35 35 34 32 31 28 28 26 26 26 24 24 28 30 30 28 22 23 21 20 22 20 18 18 24 22 17 16 20 23 24 22 19 21 20 19 19 18
46 43 37 34 35 34 34 34 34 33 33 31 29 27 27 25 25 26 29 30 27 23 23 23 19 21 17 17 19 18 22 19 17 17 19 19 20 19 19 20 18 17 17
46 41 38 38 37 37 35 36 35 35 35 33 31 28 27 26 25 26 28 29 25 22 23 23 17 17 15 15 18 16 19 16 16 16 19 18 17 21 21 19 17 19 17
45 44 39 40 39 36 38 39 38 38 36 34 32 29 29 27 26 25 28 28 24 22 23 23 17 14 18 15 14 18 21 21 10 17 18 18 17 19 22 21 18 18 18
48 45 40 41 40 40 36 37 37 37 37 35 32 33 30 28 27 25 27 27 25 22 23 22 19 16 21 23 16 20 22 20 15 18 18 18 20 18 20 18 18 19 21
52 46 39 42 41 42 36 34 36 36 36 35 34 34 32 28 29 26 27 26 26 23 23 23 20 16 16 20 23 21 25 24 22 20 18 23 22 19 19 19 19 21 23
54 52 47 39 41 43 39 34 35 37 37 37 36 36 33 31 30 26 28 26 25 23 24 24 21 17 16 18 22 18 27 27 27 21 19 24 24 24 21 21 21 23 25
58 57 53 46 44 45 39 36 32 33 37 39 37 37 35 32 29 27 27 25 25 24 25 23 21 19 17 15 19 23 21 24 24 21 21 24 26 23 23 24 26 27 27
59 58 58 53 49 47 39 38 33 32 36 37 37 37 33 31 29 27 28 27 26 26 26 23 22 20 17 16 15 18 17 31 22 23 24 25 25 25 27 27 27 26 25
62 62 61 59 54 46 42 40 35 34 37 39 38 37 33 32 30 28 29 26 26 28 27 25 24 20 18 19 17 17 16 26 25 23 26 25 26 28 29 29 27 25 24
56 57 60 58 58 49 44 46 39 34 35 38 35 38 39 35 32 30 34 28 25 28 29 26 27 22 20 20 19 19 18 22 31 26 23 25 24 24 30 31 29 26 25
48 53 56 52 49 42 44 46 41 37 36 37 38 40 41 33 30 32 34 29 26 29 30 30 29 24 21 20 20 21 21 19 25 35 31 30 26 27 28 30 30 29 27
57 53 51 49 41 37 39 41 42 41 38 35 37 36 38 34 32 33 34 30 26 28 31 32 30 28 24 21 23 23 24 23 23 32 38 31 30 30 30 30 32 31 29
60 58 50 48 45 40 39 41 41 41 39 35 36 37 40 39 37 33 32 30 26 28 30 32 31 29 25 26 25 26 27 26 26 29 36 32 34 31 31 32 37 35 31
Wind_Direction
209 237 301 292 288 306 318 321 318 316 313 312 305 307 314 316 318 321 320 323 323 318 316 314 305 321 286 262 235 236 248 217 220 230 239 241 247 280 253 242 245 248 251
258 271 290 278 293 309 319 315 308 304 309 315 317 316 311 315 316 317 318 315 317 321 321 320 299 288 294 266 244 228 234 239 224 223 228 239 247 254 235 235 245 257 258
263 277 290 278 295 302 308 315 305 304 306 312 316 319 319 318 315 314 316 318 318 319 316 316 316 299 285 261 252 236 235 237 236 236 235 238 241 248 242 255 249 252 251
253 257 275 275 288 305 299 296 311 314 310 309 311 313 317 317 318 320 323 320 317 319 310 307 312 307 306 281 257 252 245 239 234 235 235 242 241 248 250 258 253 244 241
261 257 261 272 283 309 302 302 302 306 312 313 311 311 315 315 323 326 327 327 321 316 311 311 314 304 295 272 294 256 244 238 234 238 233 239 237 245 247 247 242 239 238
261 263 259 264 268 282 299 300 297 300 313 312 315 316 320 320 328 330 331 330 321 313 308 310 313 307 308 281 298 260 232 237 235 236 233 239 235 238 239 237 235 239 237
263 265 262 263 261 270 280 290 296 296 306 309 314 316 321 326 329 331 332 332 325 309 303 303 309 301 287 290 299 283 247 241 242 238 235 237 237 238 240 234 235 238 236
264 269 265 259 261 267 271 276 288 290 292 305 312 314 319 323 328 331 331 332 327 311 301 299 310 306 291 274 286 256 242 235 240 243 240 236 240 238 236 235 239 241 240
248 266 266 267 264 264 266 269 275 286 288 294 304 310 318 320 326 333 331 332 330 313 299 300 308 302 292 277 262 243 231 237 245 246 245 241 240 232 231 237 247 249 241
247 259 268 272 272 272 271 272 270 277 285 287 294 303 312 319 323 329 333 331 331 314 296 295 302 300 292 284 268 236 227 233 250 247 246 238 253 212 233 236 242 246 240
259 257 263 267 271 273 274 276 279 272 277 281 286 296 306 314 319 323 332 333 333 308 296 296 303 303 299 281 266 229 243 215 248 247 243 240 247 244 243 236 238 242 238
261 259 256 264 271 276 277 279 279 276 270 275 278 285 296 307 315 317 327 331 332 310 298 297 305 300 294 278 267 237 228 231 234 245 242 242 237 225 233 236 235 230 230
267 268 268 269 272 275 277 278 278 277 271 273 273 280 288 299 308 313 323 328 330 310 299 299 305 296 290 269 274 234 229 237 240 242 235 234 232 229 228 231 231 230 229
277 272 272 272 269 268 271 273 274 276 273 270 272 275 282 292 301 308 317 324 327 310 304 298 305 296 287 275 276 242 239 235 238 239 234 229 229 226 225 227 225 232 230
270 273 273 269 266 265 265 269 271 270 271 268 269 272 275 283 296 305 311 321 322 307 303 297 307 297 291 291 283 255 227 231 246 227 229 222 223 229 233 230 222 230 229
265 266 264 263 262 263 262 263 267 268 267 267 266 268 270 278 289 298 306 315 314 299 298 296 303 287 304 278 280 244 236 243 233 229 221 221 219 236 233 227 226 232 235
264 264 262 263 265 261 261 263 266 266 266 264 263 262 267 272 282 293 298 308 307 294 293 292 299 295 283 281 268 240 241 242 241 228 222 220 223 223 231 230 236 238 241
264 262 262 264 265 265 262 262 263 265 262 260 257 255 260 266 274 284 290 300 302 288 286 288 290 298 296 288 259 257 237 236 240 224 226 221 224 227 230 237 239 239 244
260 261 261 259 267 270 267 266 256 254 255 255 253 254 256 259 267 278 284 292 294 282 282 282 282 296 295 292 283 286 243 249 227 234 227 228 228 228 237 248 249 246 247
253 257 263 260 257 261 265 261 256 255 257 257 251 250 249 256 264 272 279 287 292 279 277 278 279 288 299 289 291 293 243 237 222 234 236 230 224 226 236 243 248 244 250
247 249 255 257 255 255 256 256 254 253 250 250 249 247 248 255 263 268 275 278 278 270 271 273 271 280 283 290 285 286 242 232 237 223 237 235 223 228 234 239 244 246 258
250 252 251 251 252 250 247 247 245 244 245 245 246 247 250 252 259 264 271 267 269 267 265 270 267 270 274 280 281 302 279 241 226 218 228 230 225 228 233 240 243 246 255
249 249 249 248 248 249 246 246 244 237 234 238 245 247 250 245 251 261 268 271 271 261 261 265 265 265 275 275 280 280 283 254 232 230 243 248 244 233 237 236 242 243 243
246 250 252 249 246 245 243 246 245 241 234 228 234 241 247 248 251 262 267 269 265 258 258 262 263 262 274 277 279 276 286 253 247 235 240 244 250 245 247 241 235 239 236
246 246 252 254 241 238 242 245 246 246 239 231 227 240 247 246 252 259 263 266 268 253 254 260 261 259 262 279 277 275 272 268 257 247 242 243 247 244 246 239 231 233 230
251 250 252 253 256 227 238 237 241 243 243 239 232 239 244 245 249 253 257 263 267 250 253 257 258 258 263 269 285 279 271 268 253 254 239 238 238 241 246 236 231 228 232